This demonstration page uses our WeatherBlox Daily Observations layout. Learn more.

Left ArrowRight Arrow

Hourly Observations for October 16, 2020

Temp ( °F °C ) Dew Point ( °F °C ) Humidity (%) Winds ( mph kmh ) Pressure ( in mb ) Visibility ( mi km ) Precip ( " mm )
12:15 am 00:15 Clear 38 3.6 23 -5 54 54 NW 6 9 30.39 1029 10 16 N/A
12:35 am 00:35 Clear 37 3 23 -4.8 57 57 NNW 5 7 30.40 1029 10 16 N/A
12:55 am 00:55 Clear 37 2.7 24 -4.5 59 59 NNW 6 9 30.42 1030 10 16 N/A
1:15 am 01:15 Clear 37 2.6 25 -4 62 62 NW 6 9 30.42 1030 10 16 N/A
1:35 am 01:35 Clear 37 2.6 25 -4 62 62 WNW 5 7 30.43 1031 10 16 N/A
1:55 am 01:55 Clear 38 3.1 26 -3.6 62 62 WNW 5 7 30.42 1030 10 16 N/A
2:15 am 02:15 Clear 38 3.1 25 -3.7 61 61 WNW 3 6 30.43 1030 10 16 N/A
2:35 am 02:35 Partly Cloudy 38 3.1 25 -3.7 61 61 WNW 3 6 30.42 1030 10 16 N/A
2:55 am 02:55 Partly Cloudy 38 3.2 26 -3.5 62 62 WNW 5 7 30.43 1030 10 16 N/A
3:15 am 03:15 Clear 38 3.3 26 -3.1 63 63 WNW 6 9 30.42 1030 10 16 N/A
3:35 am 03:35 Partly Cloudy 38 3.5 27 -3 63 63 WNW 6 9 30.42 1030 10 16 N/A
3:55 am 03:55 Mostly Cloudy 38 3.6 27 -2.7 64 64 WNW 5 7 30.42 1030 10 16 N/A
4:15 am 04:15 Partly Cloudy 38 3.3 27 -2.7 65 65 W 6 9 30.41 1030 10 16 N/A
4:35 am 04:35 Clear 38 3.5 28 -2.5 65 65 WNW 6 9 30.40 1030 10 16 N/A
4:55 am 04:55 Clear 38 3.5 28 -2.5 65 65 W 6 9 30.40 1030 10 16 N/A
5:15 am 05:15 Clear 38 3.5 28 -2.3 66 66 WNW 5 7 30.40 1030 10 16 N/A
5:35 am 05:35 Clear 38 3.5 28 -2.2 67 67 W 5 7 30.40 1030 10 16 N/A
5:55 am 05:55 Clear 38 3.5 28 -2.1 67 67 W 5 7 30.40 1030 10 16 N/A
6:15 am 06:15 Clear 38 3.6 28 -2 67 67 W 3 6 30.40 1030 10 16 N/A
6:35 am 06:35 Clear 38 3.3 28 -2.1 68 68 W 5 7 30.40 1030 10 16 N/A
6:55 am 06:55 Clear 39 3.7 29 -1.7 68 68 WSW 3 6 30.39 1029 10 16 N/A
7:15 am 07:15 Partly Cloudy 38 3.5 29 -1.8 69 69 WSW 5 7 30.40 1030 10 16 N/A
7:35 am 07:35 Mostly Cloudy 38 3.2 28 -2 69 69 WSW 6 9 30.40 1029 10 16 N/A
7:55 am 07:55 Cloudy 38 3.5 29 -1.7 69 69 W 8 13 30.39 1029 10 16 N/A
8:15 am 08:15 Cloudy 39 3.7 29 -1.5 69 69 WSW 8 13 30.38 1029 10 16 N/A
8:35 am 08:35 Cloudy 39 4 29 -1.4 68 68 WSW 7 11 30.39 1029 10 16 N/A
8:55 am 08:55 Cloudy 42 5.8 30 -1 62 62 WSW 8 13 30.37 1028 10 16 N/A
9:15 am 09:15 Cloudy 43 6.3 30 -1.2 59 59 WSW 9 15 30.37 1028 10 16 N/A
9:35 am 09:35 Cloudy 46 7.7 30 -1 54 54 W 8 13 30.35 1028 10 16 N/A
9:55 am 09:55 Cloudy 47 8.4 30 -1.1 52 52 W 9 15 30.34 1027 10 16 N/A
10:15 am 10:15 Cloudy 48 8.9 30 -1.2 49 49 WSW 9 15 30.33 1027 10 16 N/A
10:35 am 10:35 Cloudy 49 9.5 29 -1.8 46 46 W 10 17 30.32 1027 10 16 N/A
10:55 am 10:55 Cloudy 50 9.9 29 -1.7 45 45 W 9 15 30.30 1026 10 16 N/A
11:15 am 11:15 Mostly Cloudy 52 11.2 27 -2.9 37 37 W 7 11 30.29 1026 10 16 N/A
11:35 am 11:35 Partly Cloudy 54 12 26 -3.6 34 34 WNW 6 9 30.28 1025 10 16 N/A
11:55 am 11:55 Mostly Cloudy 55 12.5 25 -3.7 32 32 WSW 7 11 30.26 1025 10 16 N/A
12:15 pm 12:15 Cloudy 55 12.5 26 -3.5 33 33 SW 3 6 30.25 1024 10 16 N/A
12:35 pm 12:35 Cloudy 56 13.2 25 -3.8 31 31 WSW 8 13 30.23 1024 10 16 N/A
12:55 pm 12:55 Cloudy 58 14.3 26 -3.1 30 30 WSW 12 19 30.20 1023 10 16 N/A
1:15 pm 13:15 Partly Cloudy 58 14.3 26 -3.2 30 30 SW 8 13 30.17 1022 10 16 N/A
1:35 pm 13:35 Sunny 58 14.3 27 -2.8 31 31 SW 14 22 30.16 1021 10 16 N/A
1:55 pm 13:55 Sunny 59 15.1 27 -2.8 29 29 WSW 12 19 30.12 1020 10 16 N/A
2:15 pm 14:15 Sunny 60 15.4 27 -2.7 29 29 SW 16 26 30.10 1019 10 16 N/A
2:35 pm 14:35 Sunny 60 15.7 27 -2.8 28 28 SW 14 22 30.08 1019 10 16 N/A
2:55 pm 14:55 Sunny 62 16.7 28 -2.5 27 27 WSW 13 20 30.05 1018 10 16 N/A
3:15 pm 15:15 Partly Cloudy 61 16.2 28 -2.1 29 29 SW 18 30 30.04 1017 10 16 N/A
3:35 pm 15:35 Sunny 63 17 29 -1.9 28 28 SW 17 28 30.01 1016 10 16 N/A
3:55 pm 15:55 Partly Cloudy 63 17.2 28 -2 27 27 SSW 18 30 29.99 1016 10 16 N/A
4:15 pm 16:15 Sunny 63 17.2 28 -2 27 27 SSW 23 37 29.98 1015 10 16 N/A
4:35 pm 16:35 Partly Cloudy 64 17.5 28 -2 27 27 SSW 21 33 29.95 1014 10 16 N/A
4:55 pm 16:55 Sunny 64 17.5 28 -2 27 27 SSW 22 35 29.95 1014 10 16 N/A
5:15 pm 17:15 Sunny 64 17.6 28 -2.2 26 26 SSW 17 28 29.94 1014 10 16 N/A
5:35 pm 17:35 Sunny 64 17.5 28 -2 27 27 SSW 17 28 29.91 1013 10 16 N/A
5:55 pm 17:55 Sunny 63 17.4 28 -2 27 27 SSW 16 26 29.91 1013 10 16 N/A
6:15 pm 18:15 Sunny 63 17.1 27 -2.6 26 26 SSW 20 31 29.88 1012 10 16 N/A
6:35 pm 18:35 Sunny 62 16.5 27 -2.6 27 27 SSW 16 26 29.89 1012 10 16 N/A
6:55 pm 18:55 Sunny 60 15.6 27 -2.6 29 29 SSW 12 19 29.88 1012 10 16 N/A
7:15 pm 19:15 Clear 59 15 28 -2.5 30 30 S 10 17 29.89 1012 10 16 N/A
7:35 pm 19:35 Clear 58 14.3 27 -2.6 31 31 S 8 13 29.90 1012 10 16 N/A
7:55 pm 19:55 Clear 55 13 28 -2.5 34 34 S 8 13 29.89 1012 10 16 N/A
8:15 pm 20:15 Clear 55 12.9 27 -2.6 34 34 S 8 13 29.88 1012 10 16 N/A
8:35 pm 20:35 Partly Cloudy 54 12.1 27 -2.6 36 36 S 9 15 29.87 1012 10 16 N/A
8:55 pm 20:55 Mostly Cloudy 55 12.5 28 -2.5 35 35 S 10 17 29.86 1011 10 16 N/A
9:15 pm 21:15 Mostly Cloudy 54 12.3 28 -2.5 36 36 S 12 19 29.85 1011 10 16 N/A
9:35 pm 21:35 Clear 53 11.9 28 -2.1 38 38 S 10 17 29.84 1010 10 16 N/A
9:55 pm 21:55 Clear 55 12.7 28 -2.2 36 36 S 15 24 29.83 1010 10 16 N/A
10:15 pm 22:15 Clear 55 13 28 -2.3 35 35 S 15 24 29.82 1010 10 16 N/A
10:35 pm 22:35 Clear 55 13 28 -2.2 35 35 S 15 24 29.81 1009 10 16 N/A
10:55 pm 22:55 Clear 55 13 28 -2.1 35 35 S 17 28 29.80 1009 10 16 N/A
11:15 pm 23:15 Clear 55 12.8 28 -2.3 35 35 S 17 28 29.78 1008 10 16 N/A
11:35 pm 23:35 Clear 55 12.7 28 -2.3 35 35 S 18 30 29.77 1008 10 16 N/A
11:55 pm 23:55 Clear 54 12.2 28 -2.1 37 37 S 16 26 29.76 1008 10 16 N/A

Powered by AerisWeather